Location: Catacaguana
(10.4120°N, 66.7591°W)
Time: 05:30:03
(UTC+00:00)

Cosmos 2263 - Pass Details

Date: 27 May 2022
Orbit: 831 x 865 km, 70.9° (Epoch: 26 June)

Event Time Altitude Azimuth Distance (km) Brightness Sun altitude
Rises 08:12:34 0° 345° (NNW) 3,409 7.5 -25.6°
Reaches altitude 10° 08:15:00 10° 346° (NNW) 2,479 6.8 -25.1°
Maximum altitude 08:20:43 82° 74° (ENE) 869 4.2 -23.9°
Drops below altitude 10° 08:26:28 10° 162° (SSE) 2,497 6.5 -22.6°
Sets 08:28:56 0° 163° (SSE) 3,435 7.3 -22.1°
